Location: Acton
(51.4942°N, 0.2232°W)
Time: 08:48:57
(UTC+00:00)

Okean 1-7 Rocket - Pass Details

Date: 18 January 2021
Orbit: 615 x 650 km, 82.5° (Epoch: 26 February)

Event Time Altitude Azimuth Distance (km) Brightness Sun altitude
Rises 20:09:06 0° 232° (SW) 2,950 7.6 -34.0°
Reaches altitude 10° 20:11:55 10° 251° (WSW) 2,050 6.8 -34.4°
Maximum altitude 20:15:11 19° 297° (WNW) 1,545 6.2 -34.9°
Enters shadow 20:16:42 16° 322° (NW) 1,673 6.2 -35.1°
